Year,Month,Day,Hour,Minute,Value (Times are PST for temperature in C)
2019,03,19,00,00,11.80
2019,03,19,00,01,11.80
2019,03,19,00,02,11.80
2019,03,19,00,03,11.80
2019,03,19,00,04,11.80
2019,03,19,00,05,11.80
2019,03,19,00,06,11.90
2019,03,19,00,07,11.90
2019,03,19,00,08,11.90
2019,03,19,00,09,11.90
2019,03,19,00,10,11.90
2019,03,19,00,11,11.90
2019,03,19,00,12,11.90
2019,03,19,00,13,11.90
2019,03,19,00,14,11.90
2019,03,19,00,15,11.80
2019,03,19,00,16,11.80
2019,03,19,00,17,11.80
2019,03,19,00,18,11.80
2019,03,19,00,19,11.70
2019,03,19,00,20,11.70
2019,03,19,00,21,11.70
2019,03,19,00,22,11.60
2019,03,19,00,23,11.60
2019,03,19,00,24,11.60
2019,03,19,00,25,11.60
2019,03,19,00,26,11.60
2019,03,19,00,27,11.60
2019,03,19,00,28,11.60
2019,03,19,00,29,11.60
2019,03,19,00,30,11.60
2019,03,19,00,31,11.60
2019,03,19,00,32,11.60
2019,03,19,00,33,11.60
2019,03,19,00,34,11.60
2019,03,19,00,35,11.60
2019,03,19,00,36,11.60
2019,03,19,00,37,11.60
2019,03,19,00,38,11.60
2019,03,19,00,39,11.50
2019,03,19,00,40,11.50
2019,03,19,00,41,11.50
2019,03,19,00,42,11.50
2019,03,19,00,43,11.50
2019,03,19,00,44,11.50
2019,03,19,00,45,11.50
2019,03,19,00,46,11.50
2019,03,19,00,47,11.40
2019,03,19,00,48,11.40
2019,03,19,00,49,11.40
2019,03,19,00,50,11.40
2019,03,19,00,51,11.40
2019,03,19,00,52,11.30
2019,03,19,00,53,11.30
2019,03,19,00,54,11.30
2019,03,19,00,55,11.30
2019,03,19,00,56,11.20
2019,03,19,00,57,11.20
2019,03,19,00,58,11.20
2019,03,19,00,59,11.20
2019,03,19,01,00,11.20
2019,03,19,01,01,11.20
2019,03,19,01,02,11.10
2019,03,19,01,03,11.10
2019,03,19,01,04,11.10
2019,03,19,01,05,11.00
2019,03,19,01,06,11.00
2019,03,19,01,07,11.00
2019,03,19,01,08,10.90
2019,03,19,01,09,10.90
2019,03,19,01,10,10.90
2019,03,19,01,11,10.90
2019,03,19,01,12,10.80
2019,03,19,01,13,10.80
2019,03,19,01,14,10.80
2019,03,19,01,15,10.70
2019,03,19,01,16,10.70
2019,03,19,01,17,10.70
2019,03,19,01,18,10.70
2019,03,19,01,19,10.70
2019,03,19,01,20,10.70
2019,03,19,01,21,10.70
2019,03,19,01,22,10.70
2019,03,19,01,23,10.70
2019,03,19,01,24,10.70
2019,03,19,01,25,10.70
2019,03,19,01,26,10.70
2019,03,19,01,27,10.70
2019,03,19,01,28,10.70
2019,03,19,01,29,10.60
2019,03,19,01,30,10.60
2019,03,19,01,31,10.60
2019,03,19,01,32,10.60
2019,03,19,01,33,10.60
2019,03,19,01,34,10.60
2019,03,19,01,35,10.60
2019,03,19,01,36,10.60
2019,03,19,01,37,10.60
2019,03,19,01,38,10.60
2019,03,19,01,39,10.60
2019,03,19,01,40,10.70
2019,03,19,01,41,10.70
2019,03,19,01,42,10.70
2019,03,19,01,43,10.70
2019,03,19,01,44,10.70
2019,03,19,01,45,10.70
2019,03,19,01,46,10.70
2019,03,19,01,47,10.60
2019,03,19,01,48,10.60
2019,03,19,01,49,10.60
2019,03,19,01,50,10.60
2019,03,19,01,51,10.60
2019,03,19,01,52,10.50
2019,03,19,01,53,10.50
2019,03,19,01,54,10.50
2019,03,19,01,55,10.50
2019,03,19,01,56,10.40
2019,03,19,01,57,10.40
2019,03,19,01,58,10.40
2019,03,19,01,59,10.40
2019,03,19,02,00,10.30
2019,03,19,02,01,10.30
2019,03,19,02,02,10.30
2019,03,19,02,03,10.20
2019,03,19,02,04,10.20
2019,03,19,02,05,10.20
2019,03,19,02,06,10.10
2019,03,19,02,07,10.00
2019,03,19,02,08,10.00
2019,03,19,02,09,9.90
2019,03,19,02,10,9.90
2019,03,19,02,11,9.80
2019,03,19,02,12,9.80
2019,03,19,02,13,9.80
2019,03,19,02,14,9.70
2019,03,19,02,15,9.70
2019,03,19,02,16,9.60
2019,03,19,02,17,9.60
2019,03,19,02,18,9.50
2019,03,19,02,19,9.50
2019,03,19,02,20,9.40
2019,03,19,02,21,9.40
2019,03,19,02,22,9.30
2019,03,19,02,23,9.30
2019,03,19,02,24,9.30
2019,03,19,02,25,9.20
2019,03,19,02,26,9.20
2019,03,19,02,27,9.20
2019,03,19,02,28,9.10
2019,03,19,02,29,9.10
2019,03,19,02,30,9.10
2019,03,19,02,31,9.00
2019,03,19,02,32,9.00
2019,03,19,02,33,9.00
2019,03,19,02,34,8.90
2019,03,19,02,35,8.90
2019,03,19,02,36,8.90
2019,03,19,02,37,8.80
2019,03,19,02,38,8.80
2019,03,19,02,39,8.80
2019,03,19,02,40,8.80
2019,03,19,02,41,8.80
2019,03,19,02,42,8.80
2019,03,19,02,43,8.80
2019,03,19,02,44,8.80
2019,03,19,02,45,8.80
2019,03,19,02,46,8.80
2019,03,19,02,47,8.80
2019,03,19,02,48,8.80
2019,03,19,02,49,8.80
2019,03,19,02,50,8.80
2019,03,19,02,51,8.80
2019,03,19,02,52,8.80
2019,03,19,02,53,8.80
2019,03,19,02,54,8.80
2019,03,19,02,55,8.80
2019,03,19,02,56,8.80
2019,03,19,02,57,8.80
2019,03,19,02,58,8.80
2019,03,19,02,59,8.80
2019,03,19,03,00,8.90
2019,03,19,03,01,8.90
2019,03,19,03,02,8.90
2019,03,19,03,03,8.90
2019,03,19,03,04,8.90
2019,03,19,03,05,8.90
2019,03,19,03,06,8.90
2019,03,19,03,07,8.90
2019,03,19,03,08,8.90
2019,03,19,03,09,8.90
2019,03,19,03,10,8.90
2019,03,19,03,11,8.80
2019,03,19,03,12,8.80
2019,03,19,03,13,8.80
2019,03,19,03,14,8.80
2019,03,19,03,15,8.70
2019,03,19,03,16,8.70
2019,03,19,03,17,8.70
2019,03,19,03,18,8.70
2019,03,19,03,19,8.70
2019,03,19,03,20,8.70
2019,03,19,03,21,8.70
2019,03,19,03,22,8.70
2019,03,19,03,23,8.70
2019,03,19,03,24,8.70
2019,03,19,03,25,8.70
2019,03,19,03,26,8.70
2019,03,19,03,27,8.70
2019,03,19,03,28,8.70
2019,03,19,03,29,8.70
2019,03,19,03,30,8.70
2019,03,19,03,31,8.60
2019,03,19,03,32,8.60
2019,03,19,03,33,8.60
2019,03,19,03,34,8.60
2019,03,19,03,35,8.60
2019,03,19,03,36,8.60
2019,03,19,03,37,8.60
2019,03,19,03,38,8.50
2019,03,19,03,39,8.50
2019,03,19,03,40,8.50
2019,03,19,03,41,8.50
2019,03,19,03,42,8.40
2019,03,19,03,43,8.40
2019,03,19,03,44,8.40
2019,03,19,03,45,8.40
2019,03,19,03,46,8.40
2019,03,19,03,47,8.40
2019,03,19,03,48,8.40
2019,03,19,03,49,8.40
2019,03,19,03,50,8.40
2019,03,19,03,51,8.30
2019,03,19,03,52,8.30
2019,03,19,03,53,8.30
2019,03,19,03,54,8.20
2019,03,19,03,55,8.20
2019,03,19,03,56,8.20
2019,03,19,03,57,8.10
2019,03,19,03,58,8.10
2019,03,19,03,59,8.00
2019,03,19,04,00,8.00
2019,03,19,04,01,8.00
2019,03,19,04,02,8.00
2019,03,19,04,03,8.00
2019,03,19,04,04,8.00
2019,03,19,04,05,8.00
2019,03,19,04,06,8.00
2019,03,19,04,07,8.00
2019,03,19,04,08,8.00
2019,03,19,04,09,8.00
2019,03,19,04,10,7.90
2019,03,19,04,11,8.00
2019,03,19,04,12,7.90
2019,03,19,04,13,7.90
2019,03,19,04,14,7.90
2019,03,19,04,15,7.90
2019,03,19,04,16,7.90
2019,03,19,04,17,7.90
2019,03,19,04,18,7.80
2019,03,19,04,19,7.80
2019,03,19,04,20,7.80
2019,03,19,04,21,7.80
2019,03,19,04,22,7.80
2019,03,19,04,23,7.80
2019,03,19,04,24,7.70
2019,03,19,04,25,7.70
2019,03,19,04,26,7.70
2019,03,19,04,27,7.70
2019,03,19,04,28,7.70
2019,03,19,04,29,7.70
2019,03,19,04,30,7.70
2019,03,19,04,31,7.70
2019,03,19,04,32,7.70
2019,03,19,04,33,7.60
2019,03,19,04,34,7.60
2019,03,19,04,35,7.60
2019,03,19,04,36,7.60
2019,03,19,04,37,7.60
2019,03,19,04,38,7.60
2019,03,19,04,39,7.60
2019,03,19,04,40,7.60
2019,03,19,04,41,7.60
2019,03,19,04,42,7.60
2019,03,19,04,43,7.60
2019,03,19,04,44,7.60
2019,03,19,04,45,7.60
2019,03,19,04,46,7.60
2019,03,19,04,47,7.60
2019,03,19,04,48,7.60
2019,03,19,04,49,7.60
2019,03,19,04,50,7.60
2019,03,19,04,51,7.60
2019,03,19,04,52,7.60
2019,03,19,04,53,7.50
2019,03,19,04,54,7.50
2019,03,19,04,55,7.40
2019,03,19,04,56,7.40
2019,03,19,04,57,7.40
2019,03,19,04,58,7.40
2019,03,19,04,59,7.30
2019,03,19,05,00,7.30
2019,03,19,05,01,7.30
2019,03,19,05,02,7.30
2019,03,19,05,03,7.20
2019,03,19,05,04,7.20
2019,03,19,05,05,7.20
2019,03,19,05,06,7.20
2019,03,19,05,07,7.20
2019,03,19,05,08,7.20
2019,03,19,05,09,7.30
2019,03,19,05,10,7.30
2019,03,19,05,11,7.30
2019,03,19,05,12,7.30
2019,03,19,05,13,7.30
2019,03,19,05,14,7.30
2019,03,19,05,15,7.30
2019,03,19,05,16,7.30
2019,03,19,05,17,7.30
2019,03,19,05,18,7.30
2019,03,19,05,19,7.30
2019,03,19,05,20,7.30
2019,03,19,05,21,7.30
2019,03,19,05,22,7.30
2019,03,19,05,23,7.30
2019,03,19,05,24,7.30
2019,03,19,05,25,7.30
2019,03,19,05,26,7.30
2019,03,19,05,27,7.30
2019,03,19,05,28,7.20
2019,03,19,05,29,7.20
2019,03,19,05,30,7.20
2019,03,19,05,31,7.20
2019,03,19,05,32,7.20
2019,03,19,05,33,7.20
2019,03,19,05,34,7.20
2019,03,19,05,35,7.20
2019,03,19,05,36,7.10
2019,03,19,05,37,7.10
2019,03,19,05,38,7.10
2019,03,19,05,39,7.10
2019,03,19,05,40,7.10
2019,03,19,05,41,7.10
2019,03,19,05,42,7.10
2019,03,19,05,43,7.00
2019,03,19,05,44,7.00
2019,03,19,05,45,7.00
2019,03,19,05,46,7.00
2019,03,19,05,47,7.00
2019,03,19,05,48,7.00
2019,03,19,05,49,7.00
2019,03,19,05,50,7.10
2019,03,19,05,51,7.10
2019,03,19,05,52,7.10
2019,03,19,05,53,7.10
2019,03,19,05,54,7.10
2019,03,19,05,55,7.20
2019,03,19,05,56,7.20
2019,03,19,05,57,7.20
2019,03,19,05,58,7.20
2019,03,19,05,59,7.30
2019,03,19,06,00,7.30
2019,03,19,06,01,7.30
2019,03,19,06,02,7.40
2019,03,19,06,03,7.40
2019,03,19,06,04,7.40
2019,03,19,06,05,7.50
2019,03,19,06,06,7.50
2019,03,19,06,07,7.60
2019,03,19,06,08,7.60
2019,03,19,06,09,7.60
2019,03,19,06,10,7.60
2019,03,19,06,11,7.60
2019,03,19,06,12,7.60
2019,03,19,06,13,7.60
2019,03,19,06,14,7.70
2019,03,19,06,15,7.70
2019,03,19,06,16,7.70
2019,03,19,06,17,7.70
2019,03,19,06,18,7.80
2019,03,19,06,19,7.80
2019,03,19,06,20,7.80
2019,03,19,06,21,7.80
2019,03,19,06,22,7.80
2019,03,19,06,23,7.80
2019,03,19,06,24,7.80
2019,03,19,06,25,7.90
2019,03,19,06,26,7.90
2019,03,19,06,27,7.90
2019,03,19,06,28,7.90
2019,03,19,06,29,7.90
2019,03,19,06,30,7.90
2019,03,19,06,31,7.90
2019,03,19,06,32,7.90
2019,03,19,06,33,7.80
2019,03,19,06,34,7.80
2019,03,19,06,35,7.80
2019,03,19,06,36,7.80
2019,03,19,06,37,7.80
2019,03,19,06,38,7.80
2019,03,19,06,39,7.80
2019,03,19,06,40,7.80
2019,03,19,06,41,7.80
2019,03,19,06,42,7.80
2019,03,19,06,43,7.80
2019,03,19,06,44,7.80
2019,03,19,06,45,7.80
2019,03,19,06,46,7.80
2019,03,19,06,47,7.80
2019,03,19,06,48,7.80
2019,03,19,06,49,7.80
2019,03,19,06,50,7.80
2019,03,19,06,51,7.80
2019,03,19,06,52,7.80
2019,03,19,06,53,7.80
2019,03,19,06,54,7.80
2019,03,19,06,55,7.80
2019,03,19,06,56,7.80
2019,03,19,06,57,7.80
2019,03,19,06,58,7.80
2019,03,19,06,59,7.80
2019,03,19,07,00,7.80
2019,03,19,07,01,7.70
2019,03,19,07,02,7.70
2019,03,19,07,03,7.70
2019,03,19,07,04,7.70
2019,03,19,07,05,7.70
2019,03,19,07,06,7.60
2019,03,19,07,07,7.60
2019,03,19,07,08,7.60
2019,03,19,07,09,7.50
2019,03,19,07,10,7.50
2019,03,19,07,11,7.50
2019,03,19,07,12,7.40
2019,03,19,07,13,7.40
2019,03,19,07,14,7.40
2019,03,19,07,15,7.40
2019,03,19,07,16,7.40
2019,03,19,07,17,7.40
2019,03,19,07,18,7.50
2019,03,19,07,19,7.50
2019,03,19,07,20,7.60
2019,03,19,07,21,7.60
2019,03,19,07,22,7.60
2019,03,19,07,23,7.60
2019,03,19,07,24,7.60
2019,03,19,07,25,7.60
2019,03,19,07,26,7.60
2019,03,19,07,27,7.60
2019,03,19,07,28,7.60
2019,03,19,07,29,7.60
2019,03,19,07,30,7.60
2019,03,19,07,31,7.70
2019,03,19,07,32,7.70
2019,03,19,07,33,7.70
2019,03,19,07,34,7.70
2019,03,19,07,35,7.80
2019,03,19,07,36,7.80
2019,03,19,07,37,7.90
2019,03,19,07,38,7.90
2019,03,19,07,39,7.90
2019,03,19,07,40,8.00
2019,03,19,07,41,8.00
2019,03,19,07,42,8.00
2019,03,19,07,43,8.10
2019,03,19,07,44,8.10
2019,03,19,07,45,8.10
2019,03,19,07,46,8.10
2019,03,19,07,47,8.10
2019,03,19,07,48,8.10
2019,03,19,07,49,8.10
2019,03,19,07,50,8.20
2019,03,19,07,51,8.20
2019,03,19,07,52,8.20
2019,03,19,07,53,8.20
2019,03,19,07,54,8.20
2019,03,19,07,55,8.20
2019,03,19,07,56,8.20
2019,03,19,07,57,8.30
2019,03,19,07,58,8.30
2019,03,19,07,59,8.20
2019,03,19,08,00,8.20
2019,03,19,08,01,8.20
2019,03,19,08,02,8.20
2019,03,19,08,03,8.20
2019,03,19,08,04,8.20
2019,03,19,08,05,8.20
2019,03,19,08,06,8.10
2019,03,19,08,07,8.10
2019,03,19,08,08,8.10
2019,03,19,08,09,8.10
2019,03,19,08,10,8.10
2019,03,19,08,11,8.10
2019,03,19,08,12,8.10
2019,03,19,08,13,8.10
2019,03,19,08,14,8.20
2019,03,19,08,15,8.20
2019,03,19,08,16,8.20
2019,03,19,08,17,8.20
2019,03,19,08,18,8.30
2019,03,19,08,19,8.30
2019,03,19,08,20,8.30
2019,03,19,08,21,8.30
2019,03,19,08,22,8.30
2019,03,19,08,23,8.30
2019,03,19,08,24,8.30
2019,03,19,08,25,8.30
2019,03,19,08,26,8.30
2019,03,19,08,27,8.30
2019,03,19,08,28,8.30
2019,03,19,08,29,8.30
2019,03,19,08,30,8.40
2019,03,19,08,31,8.40
2019,03,19,08,32,8.50
2019,03,19,08,33,8.50
2019,03,19,08,34,8.60
2019,03,19,08,35,8.70
2019,03,19,08,36,8.70
2019,03,19,08,37,8.80
2019,03,19,08,38,8.80
2019,03,19,08,39,8.90
2019,03,19,08,40,9.00
2019,03,19,08,41,9.00
2019,03,19,08,42,9.10
2019,03,19,08,43,9.20
2019,03,19,08,44,9.20
2019,03,19,08,45,9.30
2019,03,19,08,46,9.30
2019,03,19,08,47,9.40
2019,03,19,08,48,9.50
2019,03,19,08,49,9.60
2019,03,19,08,50,9.60
2019,03,19,08,51,9.70
2019,03,19,08,52,9.80
2019,03,19,08,53,9.80
2019,03,19,08,54,9.90
2019,03,19,08,55,10.00
2019,03,19,08,56,10.10
2019,03,19,08,57,10.10
2019,03,19,08,58,10.20
2019,03,19,08,59,10.30
2019,03,19,09,00,10.40
2019,03,19,09,01,10.60
2019,03,19,09,02,10.70
2019,03,19,09,03,10.80
2019,03,19,09,04,11.00
2019,03,19,09,05,11.20
2019,03,19,09,06,11.30
2019,03,19,09,07,11.30
2019,03,19,09,08,11.40
2019,03,19,09,09,11.60
2019,03,19,09,10,11.70
2019,03,19,09,11,11.80
2019,03,19,09,12,11.80
2019,03,19,09,13,11.90
2019,03,19,09,14,11.90
2019,03,19,09,15,12.00
2019,03,19,09,16,12.00
2019,03,19,09,17,12.00
2019,03,19,09,18,12.10
2019,03,19,09,19,12.20
2019,03,19,09,20,12.30
2019,03,19,09,21,12.40
2019,03,19,09,22,12.50
2019,03,19,09,23,12.60
2019,03,19,09,24,12.60
2019,03,19,09,25,12.70
2019,03,19,09,26,12.80
2019,03,19,09,27,12.80
2019,03,19,09,28,12.80
2019,03,19,09,29,12.80
2019,03,19,09,30,12.90
2019,03,19,09,31,12.90
2019,03,19,09,32,12.80
2019,03,19,09,33,12.80
2019,03,19,09,34,12.80
2019,03,19,09,35,12.70
2019,03,19,09,36,12.70
2019,03,19,09,37,12.60
2019,03,19,09,38,12.60
2019,03,19,09,39,12.60
2019,03,19,09,40,12.60
2019,03,19,09,41,12.60
2019,03,19,09,42,12.60
2019,03,19,09,43,12.60
2019,03,19,09,44,12.70
2019,03,19,09,45,12.80
2019,03,19,09,46,12.80
2019,03,19,09,47,12.90
2019,03,19,09,48,13.00
2019,03,19,09,49,13.00
2019,03,19,09,50,13.00
2019,03,19,09,51,13.10
2019,03,19,09,52,13.10
2019,03,19,09,53,13.10
2019,03,19,09,54,13.20
2019,03,19,09,55,13.30
2019,03,19,09,56,13.30
2019,03,19,09,57,13.30
2019,03,19,09,58,13.40
2019,03,19,09,59,13.40
2019,03,19,10,00,13.40
2019,03,19,10,01,13.40
2019,03,19,10,02,13.20
2019,03,19,10,03,13.10
2019,03,19,10,04,12.90
2019,03,19,10,05,12.80
2019,03,19,10,06,12.90
2019,03,19,10,07,12.90
2019,03,19,10,08,12.90
2019,03,19,10,09,12.90
2019,03,19,10,10,13.00
2019,03,19,10,11,13.00
2019,03,19,10,12,13.00
2019,03,19,10,13,13.10
2019,03,19,10,14,13.10
2019,03,19,10,15,13.20
2019,03,19,10,16,13.20
2019,03,19,10,17,13.10
2019,03,19,10,18,13.10
2019,03,19,10,19,13.10
2019,03,19,10,20,13.00
2019,03,19,10,21,12.90
2019,03,19,10,22,12.90
2019,03,19,10,23,13.00
2019,03,19,10,24,13.00
2019,03,19,10,25,13.00
2019,03,19,10,26,13.00
2019,03,19,10,27,13.10
2019,03,19,10,28,13.20
2019,03,19,10,29,13.20
2019,03,19,10,30,13.30
2019,03,19,10,31,13.40
2019,03,19,10,32,13.40
2019,03,19,10,33,13.40
2019,03,19,10,34,13.50
2019,03,19,10,35,13.50
2019,03,19,10,36,13.60
2019,03,19,10,37,13.60
2019,03,19,10,38,13.60
2019,03,19,10,39,13.60
2019,03,19,10,40,13.60
2019,03,19,10,41,13.70
2019,03,19,10,42,13.70
2019,03,19,10,43,13.80
2019,03,19,10,44,13.90
2019,03,19,10,45,13.90
2019,03,19,10,46,13.90
2019,03,19,10,47,13.80
2019,03,19,10,48,13.70
2019,03,19,10,49,13.80
2019,03,19,10,50,13.80
2019,03,19,10,51,13.80
2019,03,19,10,52,13.90
2019,03,19,10,53,13.90
2019,03,19,10,54,13.90
2019,03,19,10,55,13.90
2019,03,19,10,56,13.90
2019,03,19,10,57,14.00
2019,03,19,10,58,14.00
2019,03,19,10,59,14.10
2019,03,19,11,00,14.20
2019,03,19,11,01,14.30
2019,03,19,11,02,14.40
2019,03,19,11,03,14.40
2019,03,19,11,04,14.40
2019,03,19,11,05,14.30
2019,03,19,11,06,14.10
2019,03,19,11,07,13.90
2019,03,19,11,08,13.70
2019,03,19,11,09,13.60
2019,03,19,11,10,13.40
2019,03,19,11,11,13.20
2019,03,19,11,12,13.10
2019,03,19,11,13,13.00
2019,03,19,11,14,12.90
2019,03,19,11,15,12.80
2019,03,19,11,16,12.70
2019,03,19,11,17,12.70
2019,03,19,11,18,12.60
2019,03,19,11,19,12.60
2019,03,19,11,20,12.60
2019,03,19,11,21,12.60
2019,03,19,11,22,12.50
2019,03,19,11,23,12.50
2019,03,19,11,24,12.40
2019,03,19,11,25,12.50
2019,03,19,11,26,12.40
2019,03,19,11,27,12.40
2019,03,19,11,28,12.40
2019,03,19,11,29,12.40
2019,03,19,11,30,12.40
2019,03,19,11,31,12.30
2019,03,19,11,32,12.30
2019,03,19,11,33,12.20
2019,03,19,11,34,12.20
2019,03,19,11,35,12.30
2019,03,19,11,36,12.40
2019,03,19,11,37,12.50
2019,03,19,11,38,12.50
2019,03,19,11,39,12.50
2019,03,19,11,40,12.60
2019,03,19,11,41,12.60
2019,03,19,11,42,12.80
2019,03,19,11,43,12.90
2019,03,19,11,44,13.00
2019,03,19,11,45,13.00
2019,03,19,11,46,13.00
2019,03,19,11,47,13.00
2019,03,19,11,48,12.90
2019,03,19,11,49,12.80
2019,03,19,11,50,12.90
2019,03,19,11,51,12.90
2019,03,19,11,52,12.90
2019,03,19,11,53,13.00
2019,03,19,11,54,13.10
2019,03,19,11,55,13.30
2019,03,19,11,56,13.40
2019,03,19,11,57,13.50
2019,03,19,11,58,13.50
2019,03,19,11,59,13.50
2019,03,19,12,00,13.50
2019,03,19,12,01,13.40
2019,03,19,12,02,13.30
2019,03,19,12,03,13.30
2019,03,19,12,04,13.30
2019,03,19,12,05,13.30
2019,03,19,12,06,13.30
2019,03,19,12,07,13.30
2019,03,19,12,08,13.30
2019,03,19,12,09,13.40
2019,03,19,12,10,13.40
2019,03,19,12,11,13.40
2019,03,19,12,12,13.40
2019,03,19,12,13,13.40
2019,03,19,12,14,13.50
2019,03,19,12,15,13.70
2019,03,19,12,16,13.80
2019,03,19,12,17,13.90
2019,03,19,12,18,14.10
2019,03,19,12,19,14.30
2019,03,19,12,20,14.30
2019,03,19,12,21,14.20
2019,03,19,12,22,14.20
2019,03,19,12,23,14.10
2019,03,19,12,24,13.90
2019,03,19,12,25,13.80
2019,03,19,12,26,13.70
2019,03,19,12,27,13.70
2019,03,19,12,28,13.60
2019,03,19,12,29,13.50
2019,03,19,12,30,13.50
2019,03,19,12,31,13.50
2019,03,19,12,32,13.50
2019,03,19,12,33,13.50
2019,03,19,12,34,13.50
2019,03,19,12,35,13.50
2019,03,19,12,36,13.40
2019,03,19,12,37,13.30
2019,03,19,12,38,13.30
2019,03,19,12,39,13.20
2019,03,19,12,40,13.10
2019,03,19,12,41,13.20
2019,03,19,12,42,13.20
2019,03,19,12,43,13.20
2019,03,19,12,44,13.20
2019,03,19,12,45,13.20
2019,03,19,12,46,13.20
2019,03,19,12,47,13.20
2019,03,19,12,48,13.20
2019,03,19,12,49,13.20
2019,03,19,12,50,13.20
2019,03,19,12,51,13.20
2019,03,19,12,52,13.20
2019,03,19,12,53,13.20
2019,03,19,12,54,13.30
2019,03,19,12,55,13.30
2019,03,19,12,56,13.30
2019,03,19,12,57,13.30
2019,03,19,12,58,13.40
2019,03,19,12,59,13.50
2019,03,19,13,00,13.50
2019,03,19,13,01,13.60
2019,03,19,13,02,13.60
2019,03,19,13,03,13.70
2019,03,19,13,04,13.70
2019,03,19,13,05,13.70
2019,03,19,13,06,13.70
2019,03,19,13,07,13.80
2019,03,19,13,08,13.80
2019,03,19,13,09,13.80
2019,03,19,13,10,13.80
2019,03,19,13,11,13.70
2019,03,19,13,12,13.70
2019,03,19,13,13,13.70
2019,03,19,13,14,13.60
2019,03,19,13,15,13.60
2019,03,19,13,16,13.50
2019,03,19,13,17,13.40
2019,03,19,13,18,13.30
2019,03,19,13,19,13.30
2019,03,19,13,20,13.30
2019,03,19,13,21,13.30
2019,03,19,13,22,13.30
2019,03,19,13,23,13.30
2019,03,19,13,24,13.20
2019,03,19,13,25,13.20
2019,03,19,13,26,13.30
2019,03,19,13,27,13.40
2019,03,19,13,28,13.40
2019,03,19,13,29,13.40
2019,03,19,13,30,13.30
2019,03,19,13,31,13.20
2019,03,19,13,32,13.20
2019,03,19,13,33,13.20
2019,03,19,13,34,13.10
2019,03,19,13,35,13.00
2019,03,19,13,36,12.90
2019,03,19,13,37,12.90
2019,03,19,13,38,12.80
2019,03,19,13,39,12.80
2019,03,19,13,40,12.80
2019,03,19,13,41,12.80
2019,03,19,13,42,12.80
2019,03,19,13,43,12.80
2019,03,19,13,44,12.80
2019,03,19,13,45,12.80
2019,03,19,13,46,12.80
2019,03,19,13,47,12.80
2019,03,19,13,48,12.70
2019,03,19,13,49,12.70
2019,03,19,13,50,12.70
2019,03,19,13,51,12.60
2019,03,19,13,52,12.60
2019,03,19,13,53,12.60
2019,03,19,13,54,12.60
2019,03,19,13,55,12.60
2019,03,19,13,56,12.70
2019,03,19,13,57,12.70
2019,03,19,13,58,12.70
2019,03,19,13,59,12.80
2019,03,19,14,00,12.80
2019,03,19,14,01,12.80
2019,03,19,14,02,12.80
2019,03,19,14,03,12.80
2019,03,19,14,04,12.70
2019,03,19,14,05,12.70
2019,03,19,14,06,12.70
2019,03,19,14,07,12.70
2019,03,19,14,08,12.70
2019,03,19,14,09,12.80
2019,03,19,14,10,13.00
2019,03,19,14,11,13.10
2019,03,19,14,12,13.10
2019,03,19,14,13,13.10
2019,03,19,14,14,13.00
2019,03,19,14,15,13.00
2019,03,19,14,16,13.10
2019,03,19,14,17,13.20
2019,03,19,14,18,13.30
2019,03,19,14,19,13.40
2019,03,19,14,20,13.50
2019,03,19,14,21,13.60
2019,03,19,14,22,13.70
2019,03,19,14,23,13.70
2019,03,19,14,24,13.80
2019,03,19,14,25,13.90
2019,03,19,14,26,13.90
2019,03,19,14,27,14.00
2019,03,19,14,28,14.00
2019,03,19,14,29,14.10
2019,03,19,14,30,14.20
2019,03,19,14,31,14.20
2019,03,19,14,32,14.40
2019,03,19,14,33,14.50
2019,03,19,14,34,14.60
2019,03,19,14,35,14.80
2019,03,19,14,36,14.90
2019,03,19,14,37,15.00
2019,03,19,14,38,15.10
2019,03,19,14,39,15.10
2019,03,19,14,40,15.20
2019,03,19,14,41,15.20
2019,03,19,14,42,15.20
2019,03,19,14,43,15.20
2019,03,19,14,44,15.10
2019,03,19,14,45,15.10
2019,03,19,14,46,15.20
2019,03,19,14,47,15.20
2019,03,19,14,48,15.20
2019,03,19,14,49,15.10
2019,03,19,14,50,15.10
2019,03,19,14,51,15.10
2019,03,19,14,52,15.10
2019,03,19,14,53,15.10
2019,03,19,14,54,15.20
2019,03,19,14,55,15.20
2019,03,19,14,56,15.20
2019,03,19,14,57,15.20
2019,03,19,14,58,15.20
2019,03,19,14,59,15.20
2019,03,19,15,00,15.20
2019,03,19,15,01,15.20
2019,03,19,15,02,15.30
2019,03,19,15,03,15.30
2019,03,19,15,04,15.30
2019,03,19,15,05,15.30
2019,03,19,15,06,15.30
2019,03,19,15,07,15.30
2019,03,19,15,08,15.30
2019,03,19,15,09,15.30
2019,03,19,15,10,15.30
2019,03,19,15,11,15.30
2019,03,19,15,12,15.30
2019,03,19,15,13,15.20
2019,03,19,15,14,15.20
2019,03,19,15,15,15.10
2019,03,19,15,16,15.20
2019,03,19,15,17,15.20
2019,03,19,15,18,15.30
2019,03,19,15,19,15.30
2019,03,19,15,20,15.20
2019,03,19,15,21,15.20
2019,03,19,15,22,15.10
2019,03,19,15,23,15.00
2019,03,19,15,24,15.00
2019,03,19,15,25,14.90
2019,03,19,15,26,14.90
2019,03,19,15,27,14.90
2019,03,19,15,28,14.90
2019,03,19,15,29,14.90
2019,03,19,15,30,14.90
2019,03,19,15,31,15.00
2019,03,19,15,32,15.00
2019,03,19,15,33,15.00
2019,03,19,15,34,14.90
2019,03,19,15,35,14.90
2019,03,19,15,36,14.90
2019,03,19,15,37,14.80
2019,03,19,15,38,14.80
2019,03,19,15,39,14.80
2019,03,19,15,40,14.80
2019,03,19,15,41,14.80
2019,03,19,15,42,14.80
2019,03,19,15,43,14.80
2019,03,19,15,44,15.00
2019,03,19,15,45,15.10
2019,03,19,15,46,15.30
2019,03,19,15,47,15.40
2019,03,19,15,48,15.60
2019,03,19,15,49,15.70
2019,03,19,15,50,15.80
2019,03,19,15,51,16.00
2019,03,19,15,52,16.10
2019,03,19,15,53,16.20
2019,03,19,15,54,16.30
2019,03,19,15,55,16.40
2019,03,19,15,56,16.40
2019,03,19,15,57,16.50
2019,03,19,15,58,16.50
2019,03,19,15,59,16.50
2019,03,19,16,00,16.60
2019,03,19,16,01,16.60
2019,03,19,16,02,16.60
2019,03,19,16,03,16.60
2019,03,19,16,04,16.60
2019,03,19,16,05,16.60
2019,03,19,16,06,16.60
2019,03,19,16,07,16.60
2019,03,19,16,08,16.60
2019,03,19,16,09,16.60
2019,03,19,16,10,16.60
2019,03,19,16,11,16.60
2019,03,19,16,12,16.50
2019,03,19,16,13,16.30
2019,03,19,16,14,16.30
2019,03,19,16,15,16.20
2019,03,19,16,16,16.20
2019,03,19,16,17,16.10
2019,03,19,16,18,16.00
2019,03,19,16,19,15.90
2019,03,19,16,20,15.80
2019,03,19,16,21,15.70
2019,03,19,16,22,15.50
2019,03,19,16,23,15.20
2019,03,19,16,24,15.00
2019,03,19,16,25,14.90
2019,03,19,16,26,14.80
2019,03,19,16,27,14.70
2019,03,19,16,28,14.60
2019,03,19,16,29,14.60
2019,03,19,16,30,14.50
2019,03,19,16,31,14.50
2019,03,19,16,32,14.50
2019,03,19,16,33,14.50
2019,03,19,16,34,14.40
2019,03,19,16,35,14.50
2019,03,19,16,36,14.50
2019,03,19,16,37,14.50
2019,03,19,16,38,14.50
2019,03,19,16,39,14.50
2019,03,19,16,40,14.60
2019,03,19,16,41,14.70
2019,03,19,16,42,14.70
2019,03,19,16,43,14.80
2019,03,19,16,44,14.80
2019,03,19,16,45,14.80
2019,03,19,16,46,14.90
2019,03,19,16,47,14.90
2019,03,19,16,48,14.90
2019,03,19,16,49,14.90
2019,03,19,16,50,14.80
2019,03,19,16,51,14.70
2019,03,19,16,52,14.70
2019,03,19,16,53,14.60
2019,03,19,16,54,14.50
2019,03,19,16,55,14.50
2019,03,19,16,56,14.60
2019,03,19,16,57,14.70
2019,03,19,16,58,14.80
2019,03,19,16,59,14.90
2019,03,19,17,00,15.00
2019,03,19,17,01,15.10
2019,03,19,17,02,15.20
2019,03,19,17,03,15.40
2019,03,19,17,04,15.50
2019,03,19,17,05,15.60
2019,03,19,17,06,15.80
2019,03,19,17,07,15.90
2019,03,19,17,08,16.10
2019,03,19,17,09,16.30
2019,03,19,17,10,16.50
2019,03,19,17,11,16.50
2019,03,19,17,12,16.50
2019,03,19,17,13,16.40
2019,03,19,17,14,16.40
2019,03,19,17,15,16.30
2019,03,19,17,16,16.20
2019,03,19,17,17,16.30
2019,03,19,17,18,16.30
2019,03,19,17,19,16.40
2019,03,19,17,20,16.50
2019,03,19,17,21,16.70
2019,03,19,17,22,16.80
2019,03,19,17,23,17.00
2019,03,19,17,24,17.20
2019,03,19,17,25,17.30
2019,03,19,17,26,17.50
2019,03,19,17,27,17.50
2019,03,19,17,28,17.60
2019,03,19,17,29,17.70
2019,03,19,17,30,17.80
2019,03,19,17,31,17.80
2019,03,19,17,32,17.80
2019,03,19,17,33,17.80
2019,03,19,17,34,17.80
2019,03,19,17,35,17.70
2019,03,19,17,36,17.60
2019,03,19,17,37,17.50